Location: Malvern Link
(52.1333°N, 2.3000°W)
Time: 10:07:10
(UTC+00:00)

Cosmos 1634 Rocket - Pass Details

Date: 18 September 2020
Orbit: 961 x 991 km, 82.9° (Epoch: 25 October)

Event Time Altitude Azimuth Distance (km) Brightness Sun altitude
Exits shadow 21:19:01 27° 205° (SSW) 1,767 5.2 -26.3°
Maximum altitude 21:22:33 70° 283° (WNW) 1,028 4.2 -26.7°
Drops below altitude 10° 21:28:46 10° 7° (N) 2,720 6.8 -27.4°
Sets 21:31:19 0° 10° (N) 3,675 7.5 -27.7°
